Airfield :
LOGIN :

Register | Disclaimer

   EN    FR    IT 

 










Legend :    VFR   Marginal VFR   IFR   Intensive IFR   Very Intensive IFR
Visi :
Ceiling :
>= 8 km
>= 3000ft
5 to 8 km
1000 to 3000 ft
1500m to 5 km
500 to 1000 ft
800 to 1500m
200 to 500 ft
< 800m
< 200 ft
Symbols :   Thunderstorms  Fog  Heavy snow  Heavy precipitations  Wind > 20 kt
SIGMETs :     Misc.  Thunderstorms  Icing  Turbulence  Mountain Waves  Volcanic Ashes






- Airport Elevation : 1966 ft
- IATA code : SGE


EDGS - Siegerland

CURRENT METAR :
  • 211220Z 18013KT CAVOK 14/06 Q1007

EXPIRED METARs :
  • 211150Z 18013KT CAVOK 13/06 Q1007
  • 211120Z 19013KT 160V220 CAVOK 13/06 Q1007
  • 211050Z 19013KT 9999 FEW033 12/06 Q1008
  • 211020Z 19012KT CAVOK 11/07 Q1008
  • 210950Z 19012KT 170V230 9999 -RA NSC 11/07 Q1008

TAF TAF EDGS
Valid from the 21 at 12:00 until the 21 at 21:00 UTC


211100Z 2112/2121 19013KT CAVOK
TEMPO 2112/2121 20015G25KT



MET'MAP, your aeronautical weather chart ! - Copyright ORBIFLY December 2007 - Disclaimer

ORBIFLY MET'MAP TEAM :

Programming & Development : Alexandra Zaïnal
Concept & original design : Baudouin d'Aumeries
Assistance for programming : Marc-Olivier Méhu
Technical & hardware support : Manuel Goepfert

Contact : metmap@orbifly.com




SOURCES & CREDITS :

   NOAA